Index of /20260502/WXO-DD/model_rdps/10km/12/019
Name Last modified Size Description
Parent Directory -
20260502T12Z_MSC_RDPS_AbsoluteVorticity_IsbL-0250_RLatLon0.09_PT019H.grib2 2026-05-02 14:45 612K
20260502T12Z_MSC_RDPS_AbsoluteVorticity_IsbL-0500_RLatLon0.09_PT019H.grib2 2026-05-02 14:45 568K
20260502T12Z_MSC_RDPS_AbsoluteVorticity_IsbL-0700_RLatLon0.09_PT019H.grib2 2026-05-02 14:45 626K
20260502T12Z_MSC_RDPS_AbsoluteVorticity_IsbL-0850_RLatLon0.09_PT019H.grib2 2026-05-02 14:45 788K
20260502T12Z_MSC_RDPS_AirTemp_AGL-120m_RLatLon0.09_PT019H.grib2 2026-05-02 14:45 376K
20260502T12Z_MSC_RDPS_AirTemp_AGL-2m_RLatLon0.09_PT019H.grib2 2026-05-02 14:45 631K
20260502T12Z_MSC_RDPS_AirTemp_AGL-40m_RLatLon0.09_PT019H.grib2 2026-05-02 14:45 392K
20260502T12Z_MSC_RDPS_AirTemp_AGL-80m_RLatLon0.09_PT019H.grib2 2026-05-02 14:45 383K
20260502T12Z_MSC_RDPS_AirTemp_IsbL-0001_RLatLon0.09_PT019H.grib2 2026-05-02 14:45 293K
20260502T12Z_MSC_RDPS_AirTemp_IsbL-0005_RLatLon0.09_PT019H.grib2 2026-05-02 14:45 283K
20260502T12Z_MSC_RDPS_AirTemp_IsbL-0010_RLatLon0.09_PT019H.grib2 2026-05-02 14:45 292K
20260502T12Z_MSC_RDPS_AirTemp_IsbL-0020_RLatLon0.09_PT019H.grib2 2026-05-02 14:45 403K
20260502T12Z_MSC_RDPS_AirTemp_IsbL-0030_RLatLon0.09_PT019H.grib2 2026-05-02 14:45 332K
20260502T12Z_MSC_RDPS_AirTemp_IsbL-0050_RLatLon0.09_PT019H.grib2 2026-05-02 14:45 313K
20260502T12Z_MSC_RDPS_AirTemp_IsbL-0100_RLatLon0.09_PT019H.grib2 2026-05-02 14:45 388K
20260502T12Z_MSC_RDPS_AirTemp_IsbL-0150_RLatLon0.09_PT019H.grib2 2026-05-02 14:45 419K
20260502T12Z_MSC_RDPS_AirTemp_IsbL-0175_RLatLon0.09_PT019H.grib2 2026-05-02 14:45 407K
20260502T12Z_MSC_RDPS_AirTemp_IsbL-0200_RLatLon0.09_PT019H.grib2 2026-05-02 14:45 413K
20260502T12Z_MSC_RDPS_AirTemp_IsbL-0225_RLatLon0.09_PT019H.grib2 2026-05-02 14:45 415K
20260502T12Z_MSC_RDPS_AirTemp_IsbL-0250_RLatLon0.09_PT019H.grib2 2026-05-02 14:45 422K
20260502T12Z_MSC_RDPS_AirTemp_IsbL-0275_RLatLon0.09_PT019H.grib2 2026-05-02 14:45 403K
20260502T12Z_MSC_RDPS_AirTemp_IsbL-0300_RLatLon0.09_PT019H.grib2 2026-05-02 14:45 411K
20260502T12Z_MSC_RDPS_AirTemp_IsbL-0350_RLatLon0.09_PT019H.grib2 2026-05-02 14:45 426K
20260502T12Z_MSC_RDPS_AirTemp_IsbL-0400_RLatLon0.09_PT019H.grib2 2026-05-02 14:45 426K
20260502T12Z_MSC_RDPS_AirTemp_IsbL-0450_RLatLon0.09_PT019H.grib2 2026-05-02 14:45 399K
20260502T12Z_MSC_RDPS_AirTemp_IsbL-0500_RLatLon0.09_PT019H.grib2 2026-05-02 14:45 412K
20260502T12Z_MSC_RDPS_AirTemp_IsbL-0550_RLatLon0.09_PT019H.grib2 2026-05-02 14:45 429K
20260502T12Z_MSC_RDPS_AirTemp_IsbL-0600_RLatLon0.09_PT019H.grib2 2026-05-02 14:45 446K
20260502T12Z_MSC_RDPS_AirTemp_IsbL-0650_RLatLon0.09_PT019H.grib2 2026-05-02 14:45 458K
20260502T12Z_MSC_RDPS_AirTemp_IsbL-0700_RLatLon0.09_PT019H.grib2 2026-05-02 14:45 484K
20260502T12Z_MSC_RDPS_AirTemp_IsbL-0750_RLatLon0.09_PT019H.grib2 2026-05-02 14:45 520K
20260502T12Z_MSC_RDPS_AirTemp_IsbL-0800_RLatLon0.09_PT019H.grib2 2026-05-02 14:45 451K
20260502T12Z_MSC_RDPS_AirTemp_IsbL-0850_RLatLon0.09_PT019H.grib2 2026-05-02 14:45 501K
20260502T12Z_MSC_RDPS_AirTemp_IsbL-0875_RLatLon0.09_PT019H.grib2 2026-05-02 14:45 520K
20260502T12Z_MSC_RDPS_AirTemp_IsbL-0900_RLatLon0.09_PT019H.grib2 2026-05-02 14:45 528K
20260502T12Z_MSC_RDPS_AirTemp_IsbL-0925_RLatLon0.09_PT019H.grib2 2026-05-02 14:45 520K
20260502T12Z_MSC_RDPS_AirTemp_IsbL-0950_RLatLon0.09_PT019H.grib2 2026-05-02 14:45 522K
20260502T12Z_MSC_RDPS_AirTemp_IsbL-0970_RLatLon0.09_PT019H.grib2 2026-05-02 14:45 513K
20260502T12Z_MSC_RDPS_AirTemp_IsbL-0985_RLatLon0.09_PT019H.grib2 2026-05-02 14:45 504K
20260502T12Z_MSC_RDPS_AirTemp_IsbL-1000_RLatLon0.09_PT019H.grib2 2026-05-02 14:45 487K
20260502T12Z_MSC_RDPS_AirTemp_IsbL-1015_RLatLon0.09_PT019H.grib2 2026-05-02 14:45 487K
20260502T12Z_MSC_RDPS_Albedo_Sfc_RLatLon0.09_PT019H.grib2 2026-05-02 14:45 158K
20260502T12Z_MSC_RDPS_CAPE_Sfc_RLatLon0.09_PT019H.grib2 2026-05-02 14:45 1.6M
20260502T12Z_MSC_RDPS_CIN_Sfc_RLatLon0.09_PT019H.grib2 2026-05-02 14:45 1.1M
20260502T12Z_MSC_RDPS_CloudWater_EAtm_RLatLon0.09_PT019H.grib2 2026-05-02 14:45 220K
20260502T12Z_MSC_RDPS_ConvectivePrecip-Accum_Sfc_RLatLon0.09_PT019H.grib2 2026-05-02 14:45 793K
20260502T12Z_MSC_RDPS_DewPointDepression_AGL-2m_RLatLon0.09_PT019H.grib2 2026-05-02 14:45 397K
20260502T12Z_MSC_RDPS_DewPointDepression_IsbL-0001_RLatLon0.09_PT019H.grib2 2026-05-02 14:45 193
20260502T12Z_MSC_RDPS_DewPointDepression_IsbL-0005_RLatLon0.09_PT019H.grib2 2026-05-02 14:45 193
20260502T12Z_MSC_RDPS_DewPointDepression_IsbL-0010_RLatLon0.09_PT019H.grib2 2026-05-02 14:45 193
20260502T12Z_MSC_RDPS_DewPointDepression_IsbL-0020_RLatLon0.09_PT019H.grib2 2026-05-02 14:45 193
20260502T12Z_MSC_RDPS_DewPointDepression_IsbL-0030_RLatLon0.09_PT019H.grib2 2026-05-02 14:45 193
20260502T12Z_MSC_RDPS_DewPointDepression_IsbL-0050_RLatLon0.09_PT019H.grib2 2026-05-02 14:45 105K
20260502T12Z_MSC_RDPS_DewPointDepression_IsbL-0100_RLatLon0.09_PT019H.grib2 2026-05-02 14:45 119K
20260502T12Z_MSC_RDPS_DewPointDepression_IsbL-0150_RLatLon0.09_PT019H.grib2 2026-05-02 14:45 151K
20260502T12Z_MSC_RDPS_DewPointDepression_IsbL-0175_RLatLon0.09_PT019H.grib2 2026-05-02 14:45 185K
20260502T12Z_MSC_RDPS_DewPointDepression_IsbL-0200_RLatLon0.09_PT019H.grib2 2026-05-02 14:45 219K
20260502T12Z_MSC_RDPS_DewPointDepression_IsbL-0225_RLatLon0.09_PT019H.grib2 2026-05-02 14:45 255K
20260502T12Z_MSC_RDPS_DewPointDepression_IsbL-0250_RLatLon0.09_PT019H.grib2 2026-05-02 14:45 294K
20260502T12Z_MSC_RDPS_DewPointDepression_IsbL-0275_RLatLon0.09_PT019H.grib2 2026-05-02 14:45 306K
20260502T12Z_MSC_RDPS_DewPointDepression_IsbL-0300_RLatLon0.09_PT019H.grib2 2026-05-02 14:45 324K
20260502T12Z_MSC_RDPS_DewPointDepression_IsbL-0350_RLatLon0.09_PT019H.grib2 2026-05-02 14:45 332K
20260502T12Z_MSC_RDPS_DewPointDepression_IsbL-0400_RLatLon0.09_PT019H.grib2 2026-05-02 14:45 341K
20260502T12Z_MSC_RDPS_DewPointDepression_IsbL-0450_RLatLon0.09_PT019H.grib2 2026-05-02 14:45 346K
20260502T12Z_MSC_RDPS_DewPointDepression_IsbL-0500_RLatLon0.09_PT019H.grib2 2026-05-02 14:45 351K
20260502T12Z_MSC_RDPS_DewPointDepression_IsbL-0550_RLatLon0.09_PT019H.grib2 2026-05-02 14:45 361K
20260502T12Z_MSC_RDPS_DewPointDepression_IsbL-0600_RLatLon0.09_PT019H.grib2 2026-05-02 14:45 371K
20260502T12Z_MSC_RDPS_DewPointDepression_IsbL-0650_RLatLon0.09_PT019H.grib2 2026-05-02 14:45 378K
20260502T12Z_MSC_RDPS_DewPointDepression_IsbL-0700_RLatLon0.09_PT019H.grib2 2026-05-02 14:45 388K
20260502T12Z_MSC_RDPS_DewPointDepression_IsbL-0750_RLatLon0.09_PT019H.grib2 2026-05-02 14:45 406K
20260502T12Z_MSC_RDPS_DewPointDepression_IsbL-0800_RLatLon0.09_PT019H.grib2 2026-05-02 14:45 438K
20260502T12Z_MSC_RDPS_DewPointDepression_IsbL-0850_RLatLon0.09_PT019H.grib2 2026-05-02 14:45 471K
20260502T12Z_MSC_RDPS_DewPointDepression_IsbL-0875_RLatLon0.09_PT019H.grib2 2026-05-02 14:45 472K
20260502T12Z_MSC_RDPS_DewPointDepression_IsbL-0900_RLatLon0.09_PT019H.grib2 2026-05-02 14:45 460K
20260502T12Z_MSC_RDPS_DewPointDepression_IsbL-0925_RLatLon0.09_PT019H.grib2 2026-05-02 14:45 445K
20260502T12Z_MSC_RDPS_DewPointDepression_IsbL-0950_RLatLon0.09_PT019H.grib2 2026-05-02 14:45 440K
20260502T12Z_MSC_RDPS_DewPointDepression_IsbL-0970_RLatLon0.09_PT019H.grib2 2026-05-02 14:45 431K
20260502T12Z_MSC_RDPS_DewPointDepression_IsbL-0985_RLatLon0.09_PT019H.grib2 2026-05-02 14:45 427K
20260502T12Z_MSC_RDPS_DewPointDepression_IsbL-1000_RLatLon0.09_PT019H.grib2 2026-05-02 14:45 423K
20260502T12Z_MSC_RDPS_DewPointDepression_IsbL-1015_RLatLon0.09_PT019H.grib2 2026-05-02 14:45 414K
20260502T12Z_MSC_RDPS_DewPoint_AGL-2m_RLatLon0.09_PT019H.grib2 2026-05-02 14:45 305K
20260502T12Z_MSC_RDPS_DownwardLongwaveRadiationFlux-Accum_Sfc_RLatLon0.09_PT019H.grib2 2026-05-02 14:45 409K
20260502T12Z_MSC_RDPS_DownwardShortwaveRadiationFlux-Accum_NTAtm_RLatLon0.09_PT019H.grib2 2026-05-02 14:45 103K
20260502T12Z_MSC_RDPS_DownwardShortwaveRadiationFlux-Accum_Sfc_RLatLon0.09_PT019H.grib2 2026-05-02 14:45 615K
20260502T12Z_MSC_RDPS_FreezingRain-Accum1h_Sfc_RLatLon0.09_PT019H.grib2 2026-05-02 14:45 37K
20260502T12Z_MSC_RDPS_FreezingRain-Accum_Sfc_RLatLon0.09_PT019H.grib2 2026-05-02 14:45 86K
20260502T12Z_MSC_RDPS_GeopotentialHeight_IsbL-0001_RLatLon0.09_PT019H.grib2 2026-05-02 14:45 235K
20260502T12Z_MSC_RDPS_GeopotentialHeight_IsbL-0005_RLatLon0.09_PT019H.grib2 2026-05-02 14:45 333K
20260502T12Z_MSC_RDPS_GeopotentialHeight_IsbL-0010_RLatLon0.09_PT019H.grib2 2026-05-02 14:45 301K
20260502T12Z_MSC_RDPS_GeopotentialHeight_IsbL-0020_RLatLon0.09_PT019H.grib2 2026-05-02 14:45 397K
20260502T12Z_MSC_RDPS_GeopotentialHeight_IsbL-0030_RLatLon0.09_PT019H.grib2 2026-05-02 14:45 400K
20260502T12Z_MSC_RDPS_GeopotentialHeight_IsbL-0050_RLatLon0.09_PT019H.grib2 2026-05-02 14:45 308K
20260502T12Z_MSC_RDPS_GeopotentialHeight_IsbL-0100_RLatLon0.09_PT019H.grib2 2026-05-02 14:45 284K
20260502T12Z_MSC_RDPS_GeopotentialHeight_IsbL-0150_RLatLon0.09_PT019H.grib2 2026-05-02 14:45 230K
20260502T12Z_MSC_RDPS_GeopotentialHeight_IsbL-0175_RLatLon0.09_PT019H.grib2 2026-05-02 14:45 232K
20260502T12Z_MSC_RDPS_GeopotentialHeight_IsbL-0200_RLatLon0.09_PT019H.grib2 2026-05-02 14:45 264K
20260502T12Z_MSC_RDPS_GeopotentialHeight_IsbL-0225_RLatLon0.09_PT019H.grib2 2026-05-02 14:45 264K
20260502T12Z_MSC_RDPS_GeopotentialHeight_IsbL-0250_RLatLon0.09_PT019H.grib2 2026-05-02 14:45 265K
20260502T12Z_MSC_RDPS_GeopotentialHeight_IsbL-0275_RLatLon0.09_PT019H.grib2 2026-05-02 14:45 264K
20260502T12Z_MSC_RDPS_GeopotentialHeight_IsbL-0300_RLatLon0.09_PT019H.grib2 2026-05-02 14:45 234K
20260502T12Z_MSC_RDPS_GeopotentialHeight_IsbL-0350_RLatLon0.09_PT019H.grib2 2026-05-02 14:45 230K
20260502T12Z_MSC_RDPS_GeopotentialHeight_IsbL-0400_RLatLon0.09_PT019H.grib2 2026-05-02 14:45 227K
20260502T12Z_MSC_RDPS_GeopotentialHeight_IsbL-0450_RLatLon0.09_PT019H.grib2 2026-05-02 14:45 296K
20260502T12Z_MSC_RDPS_GeopotentialHeight_IsbL-0500_RLatLon0.09_PT019H.grib2 2026-05-02 14:45 291K
20260502T12Z_MSC_RDPS_GeopotentialHeight_IsbL-0550_RLatLon0.09_PT019H.grib2 2026-05-02 14:45 288K
20260502T12Z_MSC_RDPS_GeopotentialHeight_IsbL-0600_RLatLon0.09_PT019H.grib2 2026-05-02 14:45 286K
20260502T12Z_MSC_RDPS_GeopotentialHeight_IsbL-0650_RLatLon0.09_PT019H.grib2 2026-05-02 14:45 255K
20260502T12Z_MSC_RDPS_GeopotentialHeight_IsbL-0700_RLatLon0.09_PT019H.grib2 2026-05-02 14:45 254K
20260502T12Z_MSC_RDPS_GeopotentialHeight_IsbL-0750_RLatLon0.09_PT019H.grib2 2026-05-02 14:45 257K
20260502T12Z_MSC_RDPS_GeopotentialHeight_IsbL-0800_RLatLon0.09_PT019H.grib2 2026-05-02 14:45 264K
20260502T12Z_MSC_RDPS_GeopotentialHeight_IsbL-0850_RLatLon0.09_PT019H.grib2 2026-05-02 14:45 357K
20260502T12Z_MSC_RDPS_GeopotentialHeight_IsbL-0875_RLatLon0.09_PT019H.grib2 2026-05-02 14:45 357K
20260502T12Z_MSC_RDPS_GeopotentialHeight_IsbL-0900_RLatLon0.09_PT019H.grib2 2026-05-02 14:45 362K
20260502T12Z_MSC_RDPS_GeopotentialHeight_IsbL-0925_RLatLon0.09_PT019H.grib2 2026-05-02 14:45 365K
20260502T12Z_MSC_RDPS_GeopotentialHeight_IsbL-0950_RLatLon0.09_PT019H.grib2 2026-05-02 14:45 366K
20260502T12Z_MSC_RDPS_GeopotentialHeight_IsbL-0970_RLatLon0.09_PT019H.grib2 2026-05-02 14:45 373K
20260502T12Z_MSC_RDPS_GeopotentialHeight_IsbL-0985_RLatLon0.09_PT019H.grib2 2026-05-02 14:45 381K
20260502T12Z_MSC_RDPS_GeopotentialHeight_IsbL-1000_RLatLon0.09_PT019H.grib2 2026-05-02 14:45 392K
20260502T12Z_MSC_RDPS_GeopotentialHeight_IsbL-1015_RLatLon0.09_PT019H.grib2 2026-05-02 14:45 406K
20260502T12Z_MSC_RDPS_Humidex_Sfc_RLatLon0.09_PT019H.grib2 2026-05-02 14:45 2.4M
20260502T12Z_MSC_RDPS_IcePellets-Accum1h_Sfc_RLatLon0.09_PT019H.grib2 2026-05-02 14:45 2.5K
20260502T12Z_MSC_RDPS_IcePellets-Accum_Sfc_RLatLon0.09_PT019H.grib2 2026-05-02 14:45 13K
20260502T12Z_MSC_RDPS_KIndex_Sfc_RLatLon0.09_PT019H.grib2 2026-05-02 14:45 2.5M
20260502T12Z_MSC_RDPS_LatentHeatNetFlux_Sfc_RLatLon0.09_PT019H.grib2 2026-05-02 14:45 407K
20260502T12Z_MSC_RDPS_LiftedIndex-MU-VT_IsbL-0500_RLatLon0.09_PT019H.grib2 2026-05-02 14:45 2.4M
20260502T12Z_MSC_RDPS_NetLongwaveRadiationFlux-Accum_Sfc_RLatLon0.09_PT019H.grib2 2026-05-02 14:45 552K
20260502T12Z_MSC_RDPS_NetShortwaveRadiationFlux-Accum_Sfc_RLatLon0.09_PT019H.grib2 2026-05-02 14:45 613K
20260502T12Z_MSC_RDPS_PlanetaryBoundaryLayerHeight_Sfc_RLatLon0.09_PT019H.grib2 2026-05-02 14:45 1.1M
20260502T12Z_MSC_RDPS_Precip-Accum1h_Sfc_RLatLon0.09_PT019H.grib2 2026-05-02 14:45 1.2M
20260502T12Z_MSC_RDPS_Precip-Accum_Sfc_RLatLon0.09_PT019H.grib2 2026-05-02 14:45 1.7M
20260502T12Z_MSC_RDPS_PrecipRate_Sfc_RLatLon0.09_PT019H.grib2 2026-05-02 14:45 166K
20260502T12Z_MSC_RDPS_PrecipType-Instant_Sfc_RLatLon0.09_PT019H.grib2 2026-05-02 14:45 593K
20260502T12Z_MSC_RDPS_Pressure-Trend3h_Sfc_RLatLon0.09_PT019H.grib2 2026-05-02 14:45 1.2M
20260502T12Z_MSC_RDPS_Pressure_MSL_RLatLon0.09_PT019H.grib2 2026-05-02 14:45 323K
20260502T12Z_MSC_RDPS_Pressure_PVU-1.5_RLatLon0.09_PT019H.grib2 2026-05-02 14:45 2.5M
20260502T12Z_MSC_RDPS_Pressure_PVU-1_RLatLon0.09_PT019H.grib2 2026-05-02 14:45 2.4M
20260502T12Z_MSC_RDPS_Pressure_PVU-2_RLatLon0.09_PT019H.grib2 2026-05-02 14:45 2.4M
20260502T12Z_MSC_RDPS_Pressure_Sfc_RLatLon0.09_PT019H.grib2 2026-05-02 14:45 500K
20260502T12Z_MSC_RDPS_RadiativeTemp_Sfc_RLatLon0.09_PT019H.grib2 2026-05-02 14:45 303K
20260502T12Z_MSC_RDPS_Rain-Accum1h_Sfc_RLatLon0.09_PT019H.grib2 2026-05-02 14:45 536K
20260502T12Z_MSC_RDPS_Rain-Accum_Sfc_RLatLon0.09_PT019H.grib2 2026-05-02 14:45 1.4M
20260502T12Z_MSC_RDPS_RelativeHumidity_AGL-2m_RLatLon0.09_PT019H.grib2 2026-05-02 14:45 1.0M
20260502T12Z_MSC_RDPS_RelativeHumidity_IsbL-0010_RLatLon0.09_PT019H.grib2 2026-05-02 14:45 630K
20260502T12Z_MSC_RDPS_RelativeHumidity_IsbL-0020_RLatLon0.09_PT019H.grib2 2026-05-02 14:45 675K
20260502T12Z_MSC_RDPS_RelativeHumidity_IsbL-0030_RLatLon0.09_PT019H.grib2 2026-05-02 14:45 602K
20260502T12Z_MSC_RDPS_RelativeHumidity_IsbL-0050_RLatLon0.09_PT019H.grib2 2026-05-02 14:45 358K
20260502T12Z_MSC_RDPS_RelativeHumidity_IsbL-0100_RLatLon0.09_PT019H.grib2 2026-05-02 14:45 278K
20260502T12Z_MSC_RDPS_RelativeHumidity_IsbL-0150_RLatLon0.09_PT019H.grib2 2026-05-02 14:45 416K
20260502T12Z_MSC_RDPS_RelativeHumidity_IsbL-0175_RLatLon0.09_PT019H.grib2 2026-05-02 14:45 476K
20260502T12Z_MSC_RDPS_RelativeHumidity_IsbL-0200_RLatLon0.09_PT019H.grib2 2026-05-02 14:45 548K
20260502T12Z_MSC_RDPS_RelativeHumidity_IsbL-0225_RLatLon0.09_PT019H.grib2 2026-05-02 14:45 613K
20260502T12Z_MSC_RDPS_RelativeHumidity_IsbL-0250_RLatLon0.09_PT019H.grib2 2026-05-02 14:45 681K
20260502T12Z_MSC_RDPS_RelativeHumidity_IsbL-0275_RLatLon0.09_PT019H.grib2 2026-05-02 14:45 705K
20260502T12Z_MSC_RDPS_RelativeHumidity_IsbL-0300_RLatLon0.09_PT019H.grib2 2026-05-02 14:45 743K
20260502T12Z_MSC_RDPS_RelativeHumidity_IsbL-0350_RLatLon0.09_PT019H.grib2 2026-05-02 14:45 772K
20260502T12Z_MSC_RDPS_RelativeHumidity_IsbL-0400_RLatLon0.09_PT019H.grib2 2026-05-02 14:45 787K
20260502T12Z_MSC_RDPS_RelativeHumidity_IsbL-0450_RLatLon0.09_PT019H.grib2 2026-05-02 14:45 791K
20260502T12Z_MSC_RDPS_RelativeHumidity_IsbL-0500_RLatLon0.09_PT019H.grib2 2026-05-02 14:45 797K
20260502T12Z_MSC_RDPS_RelativeHumidity_IsbL-0550_RLatLon0.09_PT019H.grib2 2026-05-02 14:45 826K
20260502T12Z_MSC_RDPS_RelativeHumidity_IsbL-0600_RLatLon0.09_PT019H.grib2 2026-05-02 14:45 837K
20260502T12Z_MSC_RDPS_RelativeHumidity_IsbL-0650_RLatLon0.09_PT019H.grib2 2026-05-02 14:45 859K
20260502T12Z_MSC_RDPS_RelativeHumidity_IsbL-0700_RLatLon0.09_PT019H.grib2 2026-05-02 14:45 874K
20260502T12Z_MSC_RDPS_RelativeHumidity_IsbL-0750_RLatLon0.09_PT019H.grib2 2026-05-02 14:45 922K
20260502T12Z_MSC_RDPS_RelativeHumidity_IsbL-0800_RLatLon0.09_PT019H.grib2 2026-05-02 14:45 1.0M
20260502T12Z_MSC_RDPS_RelativeHumidity_IsbL-0850_RLatLon0.09_PT019H.grib2 2026-05-02 14:45 1.0M
20260502T12Z_MSC_RDPS_RelativeHumidity_IsbL-0875_RLatLon0.09_PT019H.grib2 2026-05-02 14:45 1.1M
20260502T12Z_MSC_RDPS_RelativeHumidity_IsbL-0900_RLatLon0.09_PT019H.grib2 2026-05-02 14:45 1.1M
20260502T12Z_MSC_RDPS_RelativeHumidity_IsbL-0925_RLatLon0.09_PT019H.grib2 2026-05-02 14:45 1.1M
20260502T12Z_MSC_RDPS_RelativeHumidity_IsbL-0950_RLatLon0.09_PT019H.grib2 2026-05-02 14:45 1.1M
20260502T12Z_MSC_RDPS_RelativeHumidity_IsbL-0970_RLatLon0.09_PT019H.grib2 2026-05-02 14:45 1.0M
20260502T12Z_MSC_RDPS_RelativeHumidity_IsbL-0985_RLatLon0.09_PT019H.grib2 2026-05-02 14:45 1.0M
20260502T12Z_MSC_RDPS_RelativeHumidity_IsbL-1000_RLatLon0.09_PT019H.grib2 2026-05-02 14:45 1.0M
20260502T12Z_MSC_RDPS_RelativeHumidity_IsbL-1015_RLatLon0.09_PT019H.grib2 2026-05-02 14:45 1.0M
20260502T12Z_MSC_RDPS_Runoff-Accum_Sfc_RLatLon0.09_PT019H.grib2 2026-05-02 14:45 51K
20260502T12Z_MSC_RDPS_SWEATIndex_Sfc_RLatLon0.09_PT019H.grib2 2026-05-02 14:45 2.4M
20260502T12Z_MSC_RDPS_SeeingIndex_EAtm_RLatLon0.09_PT019H.grib2 2026-05-02 14:45 1.0M
20260502T12Z_MSC_RDPS_SensibleHeatNetFlux_Sfc_RLatLon0.09_PT019H.grib2 2026-05-02 14:45 293K
20260502T12Z_MSC_RDPS_ShowalterIndex_IsbL-0500_RLatLon0.09_PT019H.grib2 2026-05-02 14:45 2.6M
20260502T12Z_MSC_RDPS_SkyTransparencyIndex_EAtm_RLatLon0.09_PT019H.grib2 2026-05-02 14:45 691K
20260502T12Z_MSC_RDPS_Snow-Accum1h_Sfc_RLatLon0.09_PT019H.grib2 2026-05-02 14:45 450K
20260502T12Z_MSC_RDPS_Snow-Accum_Sfc_RLatLon0.09_PT019H.grib2 2026-05-02 14:45 649K
20260502T12Z_MSC_RDPS_SnowDensity_Sfc_RLatLon0.09_PT019H.grib2 2026-05-02 14:45 168K
20260502T12Z_MSC_RDPS_SnowDepth_Sfc_RLatLon0.09_PT019H.grib2 2026-05-02 14:45 654K
20260502T12Z_MSC_RDPS_SoilTemp_DBS-0to10cm_RLatLon0.09_PT019H.grib2 2026-05-02 14:45 222K
20260502T12Z_MSC_RDPS_SoilTemp_Sfc_RLatLon0.09_PT019H.grib2 2026-05-02 14:45 268K
20260502T12Z_MSC_RDPS_SoilVolumetricIceContent_Sfc_RLatLon0.09_PT019H.grib2 2026-05-02 14:45 158K
20260502T12Z_MSC_RDPS_SoilVolumetricWaterContent_DBS-0to10cm_RLatLon0.09_PT019H.grib2 2026-05-02 14:45 273K
20260502T12Z_MSC_RDPS_SoilVolumetricWaterContent_DBS-0to1cm_RLatLon0.09_PT019H.grib2 2026-05-02 14:45 340K
20260502T12Z_MSC_RDPS_SpecificHumidity_AGL-120m_RLatLon0.09_PT019H.grib2 2026-05-02 14:45 487K
20260502T12Z_MSC_RDPS_SpecificHumidity_AGL-2m_RLatLon0.09_PT019H.grib2 2026-05-02 14:45 650K
20260502T12Z_MSC_RDPS_SpecificHumidity_AGL-40m_RLatLon0.09_PT019H.grib2 2026-05-02 14:45 493K
20260502T12Z_MSC_RDPS_SpecificHumidity_AGL-80m_RLatLon0.09_PT019H.grib2 2026-05-02 14:45 489K
20260502T12Z_MSC_RDPS_SpecificHumidity_IsbL-0001_RLatLon0.09_PT019H.grib2 2026-05-02 14:45 393K
20260502T12Z_MSC_RDPS_SpecificHumidity_IsbL-0005_RLatLon0.09_PT019H.grib2 2026-05-02 14:45 364K
20260502T12Z_MSC_RDPS_SpecificHumidity_IsbL-0010_RLatLon0.09_PT019H.grib2 2026-05-02 14:45 397K
20260502T12Z_MSC_RDPS_SpecificHumidity_IsbL-0020_RLatLon0.09_PT019H.grib2 2026-05-02 14:45 380K
20260502T12Z_MSC_RDPS_SpecificHumidity_IsbL-0030_RLatLon0.09_PT019H.grib2 2026-05-02 14:45 372K
20260502T12Z_MSC_RDPS_SpecificHumidity_IsbL-0050_RLatLon0.09_PT019H.grib2 2026-05-02 14:45 487K
20260502T12Z_MSC_RDPS_SpecificHumidity_IsbL-0100_RLatLon0.09_PT019H.grib2 2026-05-02 14:45 448K
20260502T12Z_MSC_RDPS_SpecificHumidity_IsbL-0150_RLatLon0.09_PT019H.grib2 2026-05-02 14:45 568K
20260502T12Z_MSC_RDPS_SpecificHumidity_IsbL-0175_RLatLon0.09_PT019H.grib2 2026-05-02 14:45 438K
20260502T12Z_MSC_RDPS_SpecificHumidity_IsbL-0200_RLatLon0.09_PT019H.grib2 2026-05-02 14:45 450K
20260502T12Z_MSC_RDPS_SpecificHumidity_IsbL-0225_RLatLon0.09_PT019H.grib2 2026-05-02 14:45 450K
20260502T12Z_MSC_RDPS_SpecificHumidity_IsbL-0250_RLatLon0.09_PT019H.grib2 2026-05-02 14:45 557K
20260502T12Z_MSC_RDPS_SpecificHumidity_IsbL-0275_RLatLon0.09_PT019H.grib2 2026-05-02 14:45 472K
20260502T12Z_MSC_RDPS_SpecificHumidity_IsbL-0300_RLatLon0.09_PT019H.grib2 2026-05-02 14:45 443K
20260502T12Z_MSC_RDPS_SpecificHumidity_IsbL-0350_RLatLon0.09_PT019H.grib2 2026-05-02 14:45 566K
20260502T12Z_MSC_RDPS_SpecificHumidity_IsbL-0400_RLatLon0.09_PT019H.grib2 2026-05-02 14:45 522K
20260502T12Z_MSC_RDPS_SpecificHumidity_IsbL-0450_RLatLon0.09_PT019H.grib2 2026-05-02 14:45 572K
20260502T12Z_MSC_RDPS_SpecificHumidity_IsbL-0500_RLatLon0.09_PT019H.grib2 2026-05-02 14:45 506K
20260502T12Z_MSC_RDPS_SpecificHumidity_IsbL-0550_RLatLon0.09_PT019H.grib2 2026-05-02 14:45 580K
20260502T12Z_MSC_RDPS_SpecificHumidity_IsbL-0600_RLatLon0.09_PT019H.grib2 2026-05-02 14:45 632K
20260502T12Z_MSC_RDPS_SpecificHumidity_IsbL-0650_RLatLon0.09_PT019H.grib2 2026-05-02 14:45 547K
20260502T12Z_MSC_RDPS_SpecificHumidity_IsbL-0700_RLatLon0.09_PT019H.grib2 2026-05-02 14:45 591K
20260502T12Z_MSC_RDPS_SpecificHumidity_IsbL-0750_RLatLon0.09_PT019H.grib2 2026-05-02 14:45 645K
20260502T12Z_MSC_RDPS_SpecificHumidity_IsbL-0800_RLatLon0.09_PT019H.grib2 2026-05-02 14:45 713K
20260502T12Z_MSC_RDPS_SpecificHumidity_IsbL-0850_RLatLon0.09_PT019H.grib2 2026-05-02 14:45 801K
20260502T12Z_MSC_RDPS_SpecificHumidity_IsbL-0875_RLatLon0.09_PT019H.grib2 2026-05-02 14:45 828K
20260502T12Z_MSC_RDPS_SpecificHumidity_IsbL-0900_RLatLon0.09_PT019H.grib2 2026-05-02 14:45 840K
20260502T12Z_MSC_RDPS_SpecificHumidity_IsbL-0925_RLatLon0.09_PT019H.grib2 2026-05-02 14:45 837K
20260502T12Z_MSC_RDPS_SpecificHumidity_IsbL-0950_RLatLon0.09_PT019H.grib2 2026-05-02 14:45 838K
20260502T12Z_MSC_RDPS_SpecificHumidity_IsbL-0970_RLatLon0.09_PT019H.grib2 2026-05-02 14:45 828K
20260502T12Z_MSC_RDPS_SpecificHumidity_IsbL-0985_RLatLon0.09_PT019H.grib2 2026-05-02 14:45 681K
20260502T12Z_MSC_RDPS_SpecificHumidity_IsbL-1000_RLatLon0.09_PT019H.grib2 2026-05-02 14:45 675K
20260502T12Z_MSC_RDPS_SpecificHumidity_IsbL-1015_RLatLon0.09_PT019H.grib2 2026-05-02 14:45 663K
20260502T12Z_MSC_RDPS_SpecificHumidity_Sfc_RLatLon0.09_PT019H.grib2 2026-05-02 14:45 295K
20260502T12Z_MSC_RDPS_StormRelativeHelicity_EtaL-10000_RLatLon0.09_PT019H.grib2 2026-05-02 14:45 1.1M
20260502T12Z_MSC_RDPS_StormSeverityIndex_EtaL-10000_RLatLon0.09_PT019H.grib2 2026-05-02 14:45 1.2M
20260502T12Z_MSC_RDPS_Thickness_IsbL-0850to0700_RLatLon0.09_PT019H.grib2 2026-05-02 14:45 176K
20260502T12Z_MSC_RDPS_Thickness_IsbL-1000to0500_RLatLon0.09_PT019H.grib2 2026-05-02 14:45 195K
20260502T12Z_MSC_RDPS_Thickness_IsbL-1000to0850_RLatLon0.09_PT019H.grib2 2026-05-02 14:45 259K
20260502T12Z_MSC_RDPS_TotalCloudCover_Sfc_RLatLon0.09_PT019H.grib2 2026-05-02 14:45 660K
20260502T12Z_MSC_RDPS_TotalTotalsIndex_Sfc_RLatLon0.09_PT019H.grib2 2026-05-02 14:45 2.4M
20260502T12Z_MSC_RDPS_UVIndex-ClearSky_Sfc_RLatLon0.09_PT019H.grib2 2026-05-02 14:45 93K
20260502T12Z_MSC_RDPS_UVIndex_Sfc_RLatLon0.09_PT019H.grib2 2026-05-02 14:45 162K
20260502T12Z_MSC_RDPS_UpwardLongwaveRadiationFlux_NTAtm_RLatLon0.09_PT019H.grib2 2026-05-02 14:45 485K
20260502T12Z_MSC_RDPS_UpwardShortwaveRadiationFlux_NTAtm_RLatLon0.09_PT019H.grib2 2026-05-02 14:45 137K
20260502T12Z_MSC_RDPS_VerticalVelocity_IsbL-0250_RLatLon0.09_PT019H.grib2 2026-05-02 14:45 433K
20260502T12Z_MSC_RDPS_VerticalVelocity_IsbL-0500_RLatLon0.09_PT019H.grib2 2026-05-02 14:45 539K
20260502T12Z_MSC_RDPS_VerticalVelocity_IsbL-0700_RLatLon0.09_PT019H.grib2 2026-05-02 14:45 616K
20260502T12Z_MSC_RDPS_VerticalVelocity_IsbL-0850_RLatLon0.09_PT019H.grib2 2026-05-02 14:45 654K
20260502T12Z_MSC_RDPS_VerticalWindShear_EtaL-6500_RLatLon0.09_PT019H.grib2 2026-05-02 14:45 1.2M
20260502T12Z_MSC_RDPS_WindChill_Sfc_RLatLon0.09_PT019H.grib2 2026-05-02 14:45 1.2M
20260502T12Z_MSC_RDPS_WindDir_AGL-10m_RLatLon0.09_PT019H.grib2 2026-05-02 14:45 965K
20260502T12Z_MSC_RDPS_WindDir_AGL-120m_RLatLon0.09_PT019H.grib2 2026-05-02 14:45 599K
20260502T12Z_MSC_RDPS_WindDir_AGL-40m_RLatLon0.09_PT019H.grib2 2026-05-02 14:45 631K
20260502T12Z_MSC_RDPS_WindDir_AGL-80m_RLatLon0.09_PT019H.grib2 2026-05-02 14:45 611K
20260502T12Z_MSC_RDPS_WindDir_IsbL-0001_RLatLon0.09_PT019H.grib2 2026-05-02 14:45 311K
20260502T12Z_MSC_RDPS_WindDir_IsbL-0005_RLatLon0.09_PT019H.grib2 2026-05-02 14:45 383K
20260502T12Z_MSC_RDPS_WindDir_IsbL-0010_RLatLon0.09_PT019H.grib2 2026-05-02 14:45 392K
20260502T12Z_MSC_RDPS_WindDir_IsbL-0020_RLatLon0.09_PT019H.grib2 2026-05-02 14:45 422K
20260502T12Z_MSC_RDPS_WindDir_IsbL-0030_RLatLon0.09_PT019H.grib2 2026-05-02 14:45 420K
20260502T12Z_MSC_RDPS_WindDir_IsbL-0050_RLatLon0.09_PT019H.grib2 2026-05-02 14:45 416K
20260502T12Z_MSC_RDPS_WindDir_IsbL-0100_RLatLon0.09_PT019H.grib2 2026-05-02 14:45 410K
20260502T12Z_MSC_RDPS_WindDir_IsbL-0150_RLatLon0.09_PT019H.grib2 2026-05-02 14:45 414K
20260502T12Z_MSC_RDPS_WindDir_IsbL-0175_RLatLon0.09_PT019H.grib2 2026-05-02 14:45 424K
20260502T12Z_MSC_RDPS_WindDir_IsbL-0200_RLatLon0.09_PT019H.grib2 2026-05-02 14:45 438K
20260502T12Z_MSC_RDPS_WindDir_IsbL-0225_RLatLon0.09_PT019H.grib2 2026-05-02 14:45 449K
20260502T12Z_MSC_RDPS_WindDir_IsbL-0250_RLatLon0.09_PT019H.grib2 2026-05-02 14:45 452K
20260502T12Z_MSC_RDPS_WindDir_IsbL-0275_RLatLon0.09_PT019H.grib2 2026-05-02 14:45 475K
20260502T12Z_MSC_RDPS_WindDir_IsbL-0300_RLatLon0.09_PT019H.grib2 2026-05-02 14:45 475K
20260502T12Z_MSC_RDPS_WindDir_IsbL-0350_RLatLon0.09_PT019H.grib2 2026-05-02 14:45 504K
20260502T12Z_MSC_RDPS_WindDir_IsbL-0400_RLatLon0.09_PT019H.grib2 2026-05-02 14:45 518K
20260502T12Z_MSC_RDPS_WindDir_IsbL-0450_RLatLon0.09_PT019H.grib2 2026-05-02 14:45 530K
20260502T12Z_MSC_RDPS_WindDir_IsbL-0500_RLatLon0.09_PT019H.grib2 2026-05-02 14:45 539K
20260502T12Z_MSC_RDPS_WindDir_IsbL-0550_RLatLon0.09_PT019H.grib2 2026-05-02 14:45 553K
20260502T12Z_MSC_RDPS_WindDir_IsbL-0600_RLatLon0.09_PT019H.grib2 2026-05-02 14:45 580K
20260502T12Z_MSC_RDPS_WindDir_IsbL-0650_RLatLon0.09_PT019H.grib2 2026-05-02 14:45 614K
20260502T12Z_MSC_RDPS_WindDir_IsbL-0700_RLatLon0.09_PT019H.grib2 2026-05-02 14:45 660K
20260502T12Z_MSC_RDPS_WindDir_IsbL-0750_RLatLon0.09_PT019H.grib2 2026-05-02 14:45 701K
20260502T12Z_MSC_RDPS_WindDir_IsbL-0800_RLatLon0.09_PT019H.grib2 2026-05-02 14:45 771K
20260502T12Z_MSC_RDPS_WindDir_IsbL-0850_RLatLon0.09_PT019H.grib2 2026-05-02 14:45 857K
20260502T12Z_MSC_RDPS_WindDir_IsbL-0875_RLatLon0.09_PT019H.grib2 2026-05-02 14:45 886K
20260502T12Z_MSC_RDPS_WindDir_IsbL-0900_RLatLon0.09_PT019H.grib2 2026-05-02 14:45 902K
20260502T12Z_MSC_RDPS_WindDir_IsbL-0925_RLatLon0.09_PT019H.grib2 2026-05-02 14:45 915K
20260502T12Z_MSC_RDPS_WindDir_IsbL-0950_RLatLon0.09_PT019H.grib2 2026-05-02 14:45 913K
20260502T12Z_MSC_RDPS_WindDir_IsbL-0970_RLatLon0.09_PT019H.grib2 2026-05-02 14:45 920K
20260502T12Z_MSC_RDPS_WindDir_IsbL-0985_RLatLon0.09_PT019H.grib2 2026-05-02 14:45 928K
20260502T12Z_MSC_RDPS_WindDir_IsbL-1000_RLatLon0.09_PT019H.grib2 2026-05-02 14:45 941K
20260502T12Z_MSC_RDPS_WindDir_IsbL-1015_RLatLon0.09_PT019H.grib2 2026-05-02 14:45 957K
20260502T12Z_MSC_RDPS_WindGust-Max_AGL-10m_RLatLon0.09_PT019H.grib2 2026-05-02 14:45 1.0M
20260502T12Z_MSC_RDPS_WindGust-Min_AGL-10m_RLatLon0.09_PT019H.grib2 2026-05-02 14:45 968K
20260502T12Z_MSC_RDPS_WindGust_AGL-10m_RLatLon0.09_PT019H.grib2 2026-05-02 14:45 1.0M
20260502T12Z_MSC_RDPS_WindSpeed_AGL-10m_RLatLon0.09_PT019H.grib2 2026-05-02 14:45 837K
20260502T12Z_MSC_RDPS_WindSpeed_AGL-120m_RLatLon0.09_PT019H.grib2 2026-05-02 14:45 540K
20260502T12Z_MSC_RDPS_WindSpeed_AGL-40m_RLatLon0.09_PT019H.grib2 2026-05-02 14:45 541K
20260502T12Z_MSC_RDPS_WindSpeed_AGL-80m_RLatLon0.09_PT019H.grib2 2026-05-02 14:45 540K
20260502T12Z_MSC_RDPS_WindSpeed_IsbL-0001_RLatLon0.09_PT019H.grib2 2026-05-02 14:45 249K
20260502T12Z_MSC_RDPS_WindSpeed_IsbL-0005_RLatLon0.09_PT019H.grib2 2026-05-02 14:45 379K
20260502T12Z_MSC_RDPS_WindSpeed_IsbL-0010_RLatLon0.09_PT019H.grib2 2026-05-02 14:45 357K
20260502T12Z_MSC_RDPS_WindSpeed_IsbL-0020_RLatLon0.09_PT019H.grib2 2026-05-02 14:45 413K
20260502T12Z_MSC_RDPS_WindSpeed_IsbL-0030_RLatLon0.09_PT019H.grib2 2026-05-02 14:45 319K
20260502T12Z_MSC_RDPS_WindSpeed_IsbL-0050_RLatLon0.09_PT019H.grib2 2026-05-02 14:45 350K
20260502T12Z_MSC_RDPS_WindSpeed_IsbL-0100_RLatLon0.09_PT019H.grib2 2026-05-02 14:45 476K
20260502T12Z_MSC_RDPS_WindSpeed_IsbL-0150_RLatLon0.09_PT019H.grib2 2026-05-02 14:45 409K
20260502T12Z_MSC_RDPS_WindSpeed_IsbL-0175_RLatLon0.09_PT019H.grib2 2026-05-02 14:45 427K
20260502T12Z_MSC_RDPS_WindSpeed_IsbL-0200_RLatLon0.09_PT019H.grib2 2026-05-02 14:45 442K
20260502T12Z_MSC_RDPS_WindSpeed_IsbL-0225_RLatLon0.09_PT019H.grib2 2026-05-02 14:45 449K
20260502T12Z_MSC_RDPS_WindSpeed_IsbL-0250_RLatLon0.09_PT019H.grib2 2026-05-02 14:45 453K
20260502T12Z_MSC_RDPS_WindSpeed_IsbL-0275_RLatLon0.09_PT019H.grib2 2026-05-02 14:45 471K
20260502T12Z_MSC_RDPS_WindSpeed_IsbL-0300_RLatLon0.09_PT019H.grib2 2026-05-02 14:45 467K
20260502T12Z_MSC_RDPS_WindSpeed_IsbL-0350_RLatLon0.09_PT019H.grib2 2026-05-02 14:45 477K
20260502T12Z_MSC_RDPS_WindSpeed_IsbL-0400_RLatLon0.09_PT019H.grib2 2026-05-02 14:45 464K
20260502T12Z_MSC_RDPS_WindSpeed_IsbL-0450_RLatLon0.09_PT019H.grib2 2026-05-02 14:45 464K
20260502T12Z_MSC_RDPS_WindSpeed_IsbL-0500_RLatLon0.09_PT019H.grib2 2026-05-02 14:45 464K
20260502T12Z_MSC_RDPS_WindSpeed_IsbL-0550_RLatLon0.09_PT019H.grib2 2026-05-02 14:45 585K
20260502T12Z_MSC_RDPS_WindSpeed_IsbL-0600_RLatLon0.09_PT019H.grib2 2026-05-02 14:45 595K
20260502T12Z_MSC_RDPS_WindSpeed_IsbL-0650_RLatLon0.09_PT019H.grib2 2026-05-02 14:45 613K
20260502T12Z_MSC_RDPS_WindSpeed_IsbL-0700_RLatLon0.09_PT019H.grib2 2026-05-02 14:45 682K
20260502T12Z_MSC_RDPS_WindSpeed_IsbL-0750_RLatLon0.09_PT019H.grib2 2026-05-02 14:45 712K
20260502T12Z_MSC_RDPS_WindSpeed_IsbL-0800_RLatLon0.09_PT019H.grib2 2026-05-02 14:45 759K
20260502T12Z_MSC_RDPS_WindSpeed_IsbL-0850_RLatLon0.09_PT019H.grib2 2026-05-02 14:45 821K
20260502T12Z_MSC_RDPS_WindSpeed_IsbL-0875_RLatLon0.09_PT019H.grib2 2026-05-02 14:45 843K
20260502T12Z_MSC_RDPS_WindSpeed_IsbL-0900_RLatLon0.09_PT019H.grib2 2026-05-02 14:45 854K
20260502T12Z_MSC_RDPS_WindSpeed_IsbL-0925_RLatLon0.09_PT019H.grib2 2026-05-02 14:45 868K
20260502T12Z_MSC_RDPS_WindSpeed_IsbL-0950_RLatLon0.09_PT019H.grib2 2026-05-02 14:45 864K
20260502T12Z_MSC_RDPS_WindSpeed_IsbL-0970_RLatLon0.09_PT019H.grib2 2026-05-02 14:45 865K
20260502T12Z_MSC_RDPS_WindSpeed_IsbL-0985_RLatLon0.09_PT019H.grib2 2026-05-02 14:45 855K
20260502T12Z_MSC_RDPS_WindSpeed_IsbL-1000_RLatLon0.09_PT019H.grib2 2026-05-02 14:45 848K
20260502T12Z_MSC_RDPS_WindSpeed_IsbL-1015_RLatLon0.09_PT019H.grib2 2026-05-02 14:45 838K
20260502T12Z_MSC_RDPS_WindU_AGL-10m_RLatLon0.09_PT019H.grib2 2026-05-02 14:45 429K
20260502T12Z_MSC_RDPS_WindU_AGL-120m_RLatLon0.09_PT019H.grib2 2026-05-02 14:45 534K
20260502T12Z_MSC_RDPS_WindU_AGL-40m_RLatLon0.09_PT019H.grib2 2026-05-02 14:45 537K
20260502T12Z_MSC_RDPS_WindU_AGL-80m_RLatLon0.09_PT019H.grib2 2026-05-02 14:45 535K
20260502T12Z_MSC_RDPS_WindU_IsbL-0001_RLatLon0.09_PT019H.grib2 2026-05-02 14:45 238K
20260502T12Z_MSC_RDPS_WindU_IsbL-0005_RLatLon0.09_PT019H.grib2 2026-05-02 14:45 280K
20260502T12Z_MSC_RDPS_WindU_IsbL-0010_RLatLon0.09_PT019H.grib2 2026-05-02 14:45 291K
20260502T12Z_MSC_RDPS_WindU_IsbL-0020_RLatLon0.09_PT019H.grib2 2026-05-02 14:45 309K
20260502T12Z_MSC_RDPS_WindU_IsbL-0030_RLatLon0.09_PT019H.grib2 2026-05-02 14:45 350K
20260502T12Z_MSC_RDPS_WindU_IsbL-0050_RLatLon0.09_PT019H.grib2 2026-05-02 14:45 377K
20260502T12Z_MSC_RDPS_WindU_IsbL-0100_RLatLon0.09_PT019H.grib2 2026-05-02 14:45 335K
20260502T12Z_MSC_RDPS_WindU_IsbL-0150_RLatLon0.09_PT019H.grib2 2026-05-02 14:45 401K
20260502T12Z_MSC_RDPS_WindU_IsbL-0175_RLatLon0.09_PT019H.grib2 2026-05-02 14:45 419K
20260502T12Z_MSC_RDPS_WindU_IsbL-0200_RLatLon0.09_PT019H.grib2 2026-05-02 14:45 336K
20260502T12Z_MSC_RDPS_WindU_IsbL-0225_RLatLon0.09_PT019H.grib2 2026-05-02 14:45 342K
20260502T12Z_MSC_RDPS_WindU_IsbL-0250_RLatLon0.09_PT019H.grib2 2026-05-02 14:45 344K
20260502T12Z_MSC_RDPS_WindU_IsbL-0275_RLatLon0.09_PT019H.grib2 2026-05-02 14:45 359K
20260502T12Z_MSC_RDPS_WindU_IsbL-0300_RLatLon0.09_PT019H.grib2 2026-05-02 14:45 354K
20260502T12Z_MSC_RDPS_WindU_IsbL-0350_RLatLon0.09_PT019H.grib2 2026-05-02 14:45 362K
20260502T12Z_MSC_RDPS_WindU_IsbL-0400_RLatLon0.09_PT019H.grib2 2026-05-02 14:45 469K
20260502T12Z_MSC_RDPS_WindU_IsbL-0450_RLatLon0.09_PT019H.grib2 2026-05-02 14:45 469K
20260502T12Z_MSC_RDPS_WindU_IsbL-0500_RLatLon0.09_PT019H.grib2 2026-05-02 14:45 471K
20260502T12Z_MSC_RDPS_WindU_IsbL-0550_RLatLon0.09_PT019H.grib2 2026-05-02 14:45 474K
20260502T12Z_MSC_RDPS_WindU_IsbL-0600_RLatLon0.09_PT019H.grib2 2026-05-02 14:45 482K
20260502T12Z_MSC_RDPS_WindU_IsbL-0650_RLatLon0.09_PT019H.grib2 2026-05-02 14:45 483K
20260502T12Z_MSC_RDPS_WindU_IsbL-0700_RLatLon0.09_PT019H.grib2 2026-05-02 14:45 506K
20260502T12Z_MSC_RDPS_WindU_IsbL-0750_RLatLon0.09_PT019H.grib2 2026-05-02 14:45 531K
20260502T12Z_MSC_RDPS_WindU_IsbL-0800_RLatLon0.09_PT019H.grib2 2026-05-02 14:45 573K
20260502T12Z_MSC_RDPS_WindU_IsbL-0850_RLatLon0.09_PT019H.grib2 2026-05-02 14:45 628K
20260502T12Z_MSC_RDPS_WindU_IsbL-0875_RLatLon0.09_PT019H.grib2 2026-05-02 14:45 647K
20260502T12Z_MSC_RDPS_WindU_IsbL-0900_RLatLon0.09_PT019H.grib2 2026-05-02 14:45 655K
20260502T12Z_MSC_RDPS_WindU_IsbL-0925_RLatLon0.09_PT019H.grib2 2026-05-02 14:45 664K
20260502T12Z_MSC_RDPS_WindU_IsbL-0950_RLatLon0.09_PT019H.grib2 2026-05-02 14:45 659K
20260502T12Z_MSC_RDPS_WindU_IsbL-0970_RLatLon0.09_PT019H.grib2 2026-05-02 14:45 657K
20260502T12Z_MSC_RDPS_WindU_IsbL-0985_RLatLon0.09_PT019H.grib2 2026-05-02 14:45 651K
20260502T12Z_MSC_RDPS_WindU_IsbL-1000_RLatLon0.09_PT019H.grib2 2026-05-02 14:45 785K
20260502T12Z_MSC_RDPS_WindU_IsbL-1015_RLatLon0.09_PT019H.grib2 2026-05-02 14:45 777K
20260502T12Z_MSC_RDPS_WindV_AGL-10m_RLatLon0.09_PT019H.grib2 2026-05-02 14:45 429K
20260502T12Z_MSC_RDPS_WindV_AGL-120m_RLatLon0.09_PT019H.grib2 2026-05-02 14:45 418K
20260502T12Z_MSC_RDPS_WindV_AGL-40m_RLatLon0.09_PT019H.grib2 2026-05-02 14:45 420K
20260502T12Z_MSC_RDPS_WindV_AGL-80m_RLatLon0.09_PT019H.grib2 2026-05-02 14:45 420K
20260502T12Z_MSC_RDPS_WindV_IsbL-0001_RLatLon0.09_PT019H.grib2 2026-05-02 14:45 243K
20260502T12Z_MSC_RDPS_WindV_IsbL-0005_RLatLon0.09_PT019H.grib2 2026-05-02 14:45 283K
20260502T12Z_MSC_RDPS_WindV_IsbL-0010_RLatLon0.09_PT019H.grib2 2026-05-02 14:45 294K
20260502T12Z_MSC_RDPS_WindV_IsbL-0020_RLatLon0.09_PT019H.grib2 2026-05-02 14:45 312K
20260502T12Z_MSC_RDPS_WindV_IsbL-0030_RLatLon0.09_PT019H.grib2 2026-05-02 14:45 314K
20260502T12Z_MSC_RDPS_WindV_IsbL-0050_RLatLon0.09_PT019H.grib2 2026-05-02 14:45 342K
20260502T12Z_MSC_RDPS_WindV_IsbL-0100_RLatLon0.09_PT019H.grib2 2026-05-02 14:45 430K
20260502T12Z_MSC_RDPS_WindV_IsbL-0150_RLatLon0.09_PT019H.grib2 2026-05-02 14:45 400K
20260502T12Z_MSC_RDPS_WindV_IsbL-0175_RLatLon0.09_PT019H.grib2 2026-05-02 14:45 420K
20260502T12Z_MSC_RDPS_WindV_IsbL-0200_RLatLon0.09_PT019H.grib2 2026-05-02 14:45 336K
20260502T12Z_MSC_RDPS_WindV_IsbL-0225_RLatLon0.09_PT019H.grib2 2026-05-02 14:45 340K
20260502T12Z_MSC_RDPS_WindV_IsbL-0250_RLatLon0.09_PT019H.grib2 2026-05-02 14:45 343K
20260502T12Z_MSC_RDPS_WindV_IsbL-0275_RLatLon0.09_PT019H.grib2 2026-05-02 14:45 358K
20260502T12Z_MSC_RDPS_WindV_IsbL-0300_RLatLon0.09_PT019H.grib2 2026-05-02 14:45 353K
20260502T12Z_MSC_RDPS_WindV_IsbL-0350_RLatLon0.09_PT019H.grib2 2026-05-02 14:45 362K
20260502T12Z_MSC_RDPS_WindV_IsbL-0400_RLatLon0.09_PT019H.grib2 2026-05-02 14:45 365K
20260502T12Z_MSC_RDPS_WindV_IsbL-0450_RLatLon0.09_PT019H.grib2 2026-05-02 14:45 366K
20260502T12Z_MSC_RDPS_WindV_IsbL-0500_RLatLon0.09_PT019H.grib2 2026-05-02 14:45 469K
20260502T12Z_MSC_RDPS_WindV_IsbL-0550_RLatLon0.09_PT019H.grib2 2026-05-02 14:45 473K
20260502T12Z_MSC_RDPS_WindV_IsbL-0600_RLatLon0.09_PT019H.grib2 2026-05-02 14:45 481K
20260502T12Z_MSC_RDPS_WindV_IsbL-0650_RLatLon0.09_PT019H.grib2 2026-05-02 14:45 496K
20260502T12Z_MSC_RDPS_WindV_IsbL-0700_RLatLon0.09_PT019H.grib2 2026-05-02 14:45 519K
20260502T12Z_MSC_RDPS_WindV_IsbL-0750_RLatLon0.09_PT019H.grib2 2026-05-02 14:45 544K
20260502T12Z_MSC_RDPS_WindV_IsbL-0800_RLatLon0.09_PT019H.grib2 2026-05-02 14:45 583K
20260502T12Z_MSC_RDPS_WindV_IsbL-0850_RLatLon0.09_PT019H.grib2 2026-05-02 14:45 635K
20260502T12Z_MSC_RDPS_WindV_IsbL-0875_RLatLon0.09_PT019H.grib2 2026-05-02 14:45 653K
20260502T12Z_MSC_RDPS_WindV_IsbL-0900_RLatLon0.09_PT019H.grib2 2026-05-02 14:45 661K
20260502T12Z_MSC_RDPS_WindV_IsbL-0925_RLatLon0.09_PT019H.grib2 2026-05-02 14:45 663K
20260502T12Z_MSC_RDPS_WindV_IsbL-0950_RLatLon0.09_PT019H.grib2 2026-05-02 14:45 659K
20260502T12Z_MSC_RDPS_WindV_IsbL-0970_RLatLon0.09_PT019H.grib2 2026-05-02 14:45 658K
20260502T12Z_MSC_RDPS_WindV_IsbL-0985_RLatLon0.09_PT019H.grib2 2026-05-02 14:45 790K
20260502T12Z_MSC_RDPS_WindV_IsbL-1000_RLatLon0.09_PT019H.grib2 2026-05-02 14:45 784K
20260502T12Z_MSC_RDPS_WindV_IsbL-1015_RLatLon0.09_PT019H.grib2 2026-05-02 14:45 776K